星链-36499(STARLINK-36499)

导读 | 豆包AI

STARLINK-36499是美国太空探索技术公司SpaceX星链(Starlink)卫星星座的成员,于2026年1月9日成功发射。星链项目旨在构建全球覆盖的低轨卫星互联网,为偏远、网络基础设施匮乏地区提供高速宽带服务。作为巨型星座组网的一部分,STARLINK-36499将依托近地轨道优势,降低信号延迟,进一步补充完善全球卫星互联网覆盖网络,推动星链星座通信能力升级,服务全球用户的互联网接入需求。

基本信息
目录编号:
67359
目录名称:
STARLINK-36499
国际标识:
2026-003AB
轨道中心:
EARTH
卫星名称:
星链-36499
卫星全名:
星链-36499(STARLINK-36499)
卫星状态:
在轨 (已飞行136 天)
发射日期:
2026-01-09 UTC
国别 :
美国 (US)
星等 :
--
轨道信息
数据来源 国际轨道数据
星历时间: 2026-05-25T08:37:09+0800
8小时前
查看轨道信息
半长轴: 6861.199km
偏心率: 0.0001442
轨道倾角: 43.001°
近地点辐角 264.842°
升交点赤经 156.385°
平近点角 95.226°
近地点: 482.072km
远地点: 484.052km
周期: 94.267分钟
每日圈数: 15.27576
详细信息
固有亮度:
5
最大亮度:
2.5
卫星平台:
Starlink V1.0
覆盖范围:
全球
运营商:
太空探索技术公司
运营商所在国:
美国
制造商(研发单位):
太空探索技术公司
制造商所在国:
美国
使用方式:
暂无
卫星简介
Starlink 计划是 SpaceX 推出的全球卫星互联网项目,通过发射低轨道卫星,为全球尤其是偏远地区提供高速、低延迟的互联网服务。自 2019 年起,Starlink 已部署数千颗卫星,旨在缩小全球数字鸿沟,推动互联网普及。该项目还为军事、航空等行业提供通信支持,带来广泛经济效益。
2D轨道图
3D轨道图
轨道高度分析图
轨道倾角分析图
轨道综合分析图
查看轨道综合分析图